Flag for Austria Weather past 2 weeks in Klagenfurt, Carinthia, Austria

Now
61 °F

Cool.


Feels Like: 61 °F
Forecast: 58 / 85 °F
Wind: 3 mph from Northwest

Location: Klagenfurt-Flughafen

Current Time: Aug 28, 2015 at 2:43:16 AM

Latest Report: Aug 28, 2015 at 1:50 AM


Visibility: N/A

Pressure: 30.07 "Hg

Humidity: 94%

Dew point: 59 °F

Location of KlagenfurtLocation

Historic Weather in Klagenfurt — Graph

°F

Klagenfurt temperature yesterday

Maximum temperature yesterday: 82 °F (at 3:50 PM)
Minimum temperature yesterday: 55 °F (at 4:20 AM)
Average temperature yesterday: 68 °F

Past Weeks' High & Low Weather Summary

 TemperatureHumidityPressure
High91 °F (Aug 14, 3:50 PM)100% (Aug 18, 1:50 AM)30.27 "Hg (Aug 18, 1:50 AM)
Low50 °F (Aug 23, 5:50 AM)29% (Aug 13, 3:50 PM)29.77 "Hg (Aug 16, 2:20 PM)
Average66 °F76%30.02 "Hg
* Reported Aug 13 12:20 AM — Aug 28 12:50 AM, Klagenfurt, Weather by CustomWeather, © 2015

Note: Actual official high and low records may vary slightly from our data, if they occured in-between our weather recording intervals... More about our weather records

Advertising

Klagenfurt weather history for previous 24 hours

 ConditionsComfort  
Time TempWeatherWind HumidityBarometerVisibility
12:50 AM
Fri, Aug 28
63 °FMild.3 mph88%30.07 "HgN/A
12:20 AM63 °FMild.2 mph88%30.07 "HgN/A
11:50 PM
Thu, Aug 27
63 °FMild.2 mph94%30.07 "HgN/A
11:20 PM64 °FClear.3 mph88%30.07 "Hg10 mi
10:50 PM66 °FClear.3 mph83%30.07 "Hg10 mi
10:20 PM66 °FClear.2 mph88%30.07 "Hg10 mi
9:50 PM68 °FClear.3 mph83%30.04 "Hg10 mi
9:20 PM70 °FClear.5 mph73%30.04 "Hg10 mi
8:50 PM70 °FSunny.3 mph78%30.04 "Hg10 mi
8:20 PM73 °FSunny.1 mph69%30.04 "Hg10 mi
7:50 PM77 °FSunny.1 mph54%30.04 "Hg10 mi
7:20 PM77 °FPassing clouds.3 mph54%30.01 "HgN/A
6:50 PM79 °FPassing clouds.3 mph54%30.01 "HgN/A
6:20 PM82 °FPassing clouds.5 mph48%30.01 "HgN/A
5:50 PM82 °FPassing clouds.5 mph48%30.04 "HgN/A
5:20 PM82 °FPassing clouds.5 mph48%30.04 "HgN/A
4:50 PM82 °FPassing clouds.3 mph51%30.04 "HgN/A
4:20 PM82 °FScattered clouds.3 mph51%30.04 "HgN/A
3:50 PM82 °FScattered clouds.5 mph55%30.04 "HgN/A
3:20 PM81 °FPassing clouds.5 mph54%30.04 "HgN/A
2:50 PM81 °FPassing clouds.5 mph51%30.04 "HgN/A
2:20 PM79 °FPassing clouds.3 mph51%30.07 "HgN/A
1:50 PM77 °FPassing clouds.3 mph57%30.07 "HgN/A
1:20 PM77 °FWarm.3 mph61%30.07 "HgN/A
12:50 PM75 °FPassing clouds.2 mph61%30.09 "HgN/A
12:20 PM73 °FPassing clouds.3 mph61%30.09 "HgN/A
11:50 AM73 °FPassing clouds.5 mph61%30.09 "HgN/A
11:20 AM72 °FPassing clouds.3 mph65%30.12 "HgN/A
10:50 AM70 °FPassing clouds.2 mph73%30.12 "HgN/A
10:20 AM68 °FPassing clouds.2 mph78%30.12 "HgN/A
9:50 AM66 °FPassing clouds.3 mph83%30.12 "HgN/A
9:20 AM64 °FPassing clouds.3 mph88%30.15 "HgN/A
8:50 AM63 °FScattered clouds.3 mph88%30.15 "HgN/A
8:20 AM63 °FScattered clouds.2 mph88%30.15 "HgN/A
7:50 AM59 °FPartly sunny.2 mph94%30.15 "HgN/A
7:20 AM57 °FSnow. Partly sunny.2 mph100%30.12 "HgN/A
6:50 AM57 °FPartly cloudy.2 mph100%30.12 "Hg4 mi
6:20 AM57 °FPassing clouds.3 mph94%30.12 "HgN/A
5:50 AM55 °FPartly cloudy.3 mph100%30.12 "Hg4 mi
5:20 AM55 °FPassing clouds.5 mph100%30.12 "HgN/A
4:50 AM55 °FPassing clouds.3 mph94%30.12 "HgN/A
4:20 AM55 °FPassing clouds.3 mph100%30.12 "HgN/A
3:50 AM57 °FPassing clouds.5 mph94%30.12 "HgN/A
3:20 AM57 °FPassing clouds.5 mph94%30.12 "Hg6 mi
2:50 AM57 °FCool.3 mph94%30.12 "HgN/A
2:20 AM57 °FCool.3 mph94%30.15 "HgN/A
Weather by CustomWeather, © 2015

See weather overviewHow to use our weather pages